This is the latest recevied weather packets stored in our database for station/object K6GMW. If no packets are shown the sender has not sent any weather packets the latest 10 day(s).
| Time | Temp. | Humidity | Pressure | Rain* | Wind** | Luminosity | Snow |
|---|---|---|---|---|---|---|---|
| 1777920234 | 24.44° C | 49% | 1014.2 hPa | 0 mm | - | 977 W/m² | - |
| 1777919930 | 25° C | 48% | 1014.1 hPa | 0 mm | - | 758 W/m² | - |
| 1777919628 | 25° C | 48% | 1014.2 hPa | 0 mm | - | 961 W/m² | - |
| 1777919325 | 24.44° C | 50% | 1014.2 hPa | 0 mm | - | 1006 W/m² | - |
| 1777919023 | 24.44° C | 47% | 1014.3 hPa | 0 mm | - | 995 W/m² | - |
| 1777918719 | 24.44° C | 48% | 1014.5 hPa | 0 mm | - | 1000 W/m² | - |
| 1777918417 | 25° C | 48% | 1014.6 hPa | 0 mm | - | 913 W/m² | - |
| 1777918116 | 24.44° C | 48% | 1014.6 hPa | 0 mm | - | 1011 W/m² | - |
| 1777917814 | 24.44° C | 49% | 1014.6 hPa | 0 mm | - | 832 W/m² | - |
| 1777917512 | 24.44° C | 49% | 1014.7 hPa | 0 mm | - | 920 W/m² | - |
| 1777917208 | 23.89° C | 49% | 1014.9 hPa | 0 mm | - | 995 W/m² | - |
| 1777916907 | 23.89° C | 51% | 1014.9 hPa | 0 mm | - | 867 W/m² | - |
| 1777916604 | 23.89° C | 52% | 1014.9 hPa | 0 mm | - | 980 W/m² | - |
| 1777916300 | 23.89° C | 50% | 1015.1 hPa | 0 mm | - | 691 W/m² | - |
| 1777915997 | 23.89° C | 50% | 1015.2 hPa | 0 mm | - | 742 W/m² | - |
| 1777915694 | 23.89° C | 51% | 1015.2 hPa | 0 mm | - | 651 W/m² | - |
| 1777915391 | 23.89° C | 48% | 1015.4 hPa | 0 mm | - | 844 W/m² | - |
| 1777915086 | 23.89° C | 52% | 1015.4 hPa | 0 mm | - | 855 W/m² | - |
| 1777914784 | 23.89° C | 50% | 1015.4 hPa | 0 mm | - | 961 W/m² | - |
| 1777914481 | 23.89° C | 50% | 1015.4 hPa | 0 mm | - | 892 W/m² | - |
| 1777914178 | 23.89° C | 49% | 1015.5 hPa | 0 mm | - | 881 W/m² | - |
| 1777913874 | 23.89° C | 51% | 1015.5 hPa | 0 mm | - | 950 W/m² | - |
| 1777913571 | 23.89° C | 51% | 1015.4 hPa | 0 mm | - | 943 W/m² | - |
| 1777913267 | 23.33° C | 51% | 1015.5 hPa | 0 mm | - | 941 W/m² | - |
| 1777912964 | 23.33° C | 51% | 1015.6 hPa | 0 mm | - | 937 W/m² | - |
* Rain latest hour (hover to see other rain measurements)
** Current wind speed in m/s (hover to see current wind gust speed)